TimeEST,TemperatureF,Dew PointF,Humidity,Sea Level PressureIn,VisibilityMPH,Wind Direction,Wind SpeedMPH,Gust SpeedMPH,PrecipitationIn,Events,Conditions,WindDirDegrees,DateUTC
12:53 AM,75.9,71.1,85,30.02,10.0,SSE,5.8,-,N/A,,Scattered Clouds,150,2012-12-09 05:53:00
1:53 AM,75.9,72.0,87,30.01,10.0,SSW,5.8,-,N/A,,Mostly Cloudy,210,2012-12-09 06:53:00
1:58 AM,75.2,71.6,89,30.01,10.0,SSW,6.9,-,N/A,,Mostly Cloudy,200,2012-12-09 06:58:00
2:14 AM,75.2,71.6,89,30.01,10.0,South,3.5,-,N/A,,Mostly Cloudy,180,2012-12-09 07:14:00
2:25 AM,75.2,71.6,89,30.01,10.0,SSW,3.5,-,N/A,,Scattered Clouds,210,2012-12-09 07:25:00
2:48 AM,73.4,71.6,94,30.00,10.0,Calm,Calm,-,0.00,Rain,Light Rain,0,2012-12-09 07:48:00
2:53 AM,73.9,71.1,91,30.00,10.0,Calm,Calm,-,0.00,Rain,Light Rain,0,2012-12-09 07:53:00
3:53 AM,71.1,69.1,93,30.01,10.0,NW,5.8,-,0.00,,Mostly Cloudy,310,2012-12-09 08:53:00
4:53 AM,70.0,68.0,93,30.02,10.0,Calm,Calm,-,N/A,,Mostly Cloudy,0,2012-12-09 09:53:00
5:46 AM,69.8,69.8,100,30.02,6.0,Calm,Calm,-,N/A,,Scattered Clouds,0,2012-12-09 10:46:00
5:53 AM,69.1,68.0,96,30.03,4.0,Calm,Calm,-,N/A,,Scattered Clouds,0,2012-12-09 10:53:00
6:53 AM,70.0,68.0,93,30.05,10.0,Calm,Calm,-,N/A,,Partly Cloudy,0,2012-12-09 11:53:00
7:53 AM,70.0,68.0,93,30.06,10.0,Calm,Calm,-,N/A,,Mostly Cloudy,0,2012-12-09 12:53:00
8:35 AM,71.6,69.8,94,30.08,10.0,North,3.5,-,N/A,,Mostly Cloudy,360,2012-12-09 13:35:00
8:53 AM,73.0,70.0,90,30.08,10.0,Calm,Calm,-,N/A,,Mostly Cloudy,0,2012-12-09 13:53:00
9:41 AM,78.8,71.6,78,30.09,10.0,Calm,Calm,-,N/A,,Mostly Cloudy,0,2012-12-09 14:41:00
9:53 AM,78.1,72.0,81,30.09,10.0,Calm,Calm,-,N/A,,Mostly Cloudy,0,2012-12-09 14:53:00
10:53 AM,79.0,72.0,79,30.08,10.0,Calm,Calm,-,N/A,,Mostly Cloudy,0,2012-12-09 15:53:00
11:22 AM,80.6,71.6,74,30.07,10.0,Calm,Calm,-,N/A,,Mostly Cloudy,0,2012-12-09 16:22:00
11:53 AM,80.1,71.1,74,30.06,10.0,Calm,Calm,-,N/A,,Mostly Cloudy,0,2012-12-09 16:53:00
12:53 PM,81.0,72.0,74,30.02,10.0,ESE,6.9,-,N/A,,Mostly Cloudy,110,2012-12-09 17:53:00
1:11 PM,82.4,71.6,70,30.02,10.0,ESE,9.2,-,N/A,,Mostly Cloudy,110,2012-12-09 18:11:00
1:53 PM,81.0,71.1,72,30.00,10.0,ESE,8.1,-,N/A,,Mostly Cloudy,110,2012-12-09 18:53:00
2:53 PM,81.0,71.1,72,30.00,10.0,SE,6.9,-,N/A,,Mostly Cloudy,130,2012-12-09 19:53:00
3:53 PM,82.0,72.0,71,29.99,10.0,SE,10.4,-,N/A,,Mostly Cloudy,140,2012-12-09 20:53:00
4:53 PM,80.1,73.0,79,30.00,10.0,SE,9.2,-,N/A,,Mostly Cloudy,130,2012-12-09 21:53:00
5:53 PM,78.1,73.0,84,30.01,10.0,SE,8.1,-,N/A,,Mostly Cloudy,140,2012-12-09 22:53:00
6:53 PM,78.1,73.0,84,30.02,10.0,SE,6.9,-,N/A,,Mostly Cloudy,140,2012-12-09 23:53:00
7:53 PM,78.1,73.0,84,30.02,10.0,SSE,8.1,-,N/A,,Mostly Cloudy,150,2012-12-10 00:53:00
8:53 PM,77.0,73.0,88,30.03,10.0,South,4.6,-,N/A,,Scattered Clouds,170,2012-12-10 01:53:00
9:53 PM,75.9,73.0,91,30.03,10.0,Calm,Calm,-,N/A,,Scattered Clouds,0,2012-12-10 02:53:00
10:32 PM,73.4,69.8,88,30.04,10.0,WNW,8.1,-,N/A,,Mostly Cloudy,300,2012-12-10 03:32:00
10:53 PM,73.0,69.1,87,30.04,10.0,West,5.8,-,N/A,,Mostly Cloudy,280,2012-12-10 03:53:00
11:18 PM,73.4,68.0,83,30.03,10.0,West,3.5,-,N/A,,Mostly Cloudy,260,2012-12-10 04:18:00
11:37 PM,73.4,68.0,83,30.03,10.0,West,3.5,-,N/A,,Scattered Clouds,260,2012-12-10 04:37:00
11:53 PM,72.0,68.0,87,30.03,10.0,Calm,Calm,-,N/A,,Scattered Clouds,0,2012-12-10 04:53:00